COSMOS 2491 DEB, 57562

Orbit data source: Space-Track

COSMOS 2491 DEB, 57562 is space debris in LEO originally from a launch on Wed, 25 Dec 2013 UTC launched from the Plesetsk Missile And Space Complex (PKMTR). Debris objects in space refer to the collection of defunct objects orbiting the Earth. Examples of debris include non-operational satellites, rocket bodies, and fragments generated from explosions, collisions, or faulty payload assembly.

Loading next visibility...
Identifier
57562, 2013-076AZ
Orbit
LEO
Country
Flag of CISCIS
Related business
Manufacturer
TsNIIKhM
Mission
Spacecraft
Bus & Motor
Unknown
Mass
Unknown
Launch date (UTC)
2013-12-25 (12 years ago)
Launch vehicle
Unknown
Launch site
Plesetsk Missile And Space Complex (PKMTR)
Object type
Payload
Rocket body
Debris
Shape & HBR
Unknown shape, 0.1 m
Radar Cross Section
Small (<0.1 m²)

Expand to show TLE details & history
Last TLE update: 5 days ago

TLE from 5 days ago
0 COSMOS 2491 DEB
1 57562U 13076AZ  26116.28673664  .00000951  00000-0  39974-2 0  9999
2 57562  82.5946 118.1393 0011873  53.6667 306.5530 12.82396727138719
Epoch: 2026-04-26T06:52Z
TLE epoch observation values (Epoch: 2026-04-26T06:52:54.045Z)
Latitude
-0.00003°
Longitude
160.62118°
Altitude
1,329.162 km
Speed
7.195 km/s
True Right ascension
07h 52m 33s
True Declination
0° 00' 00"
Sunlit
Object was in daylight at epoch
Visualization orbit readout
Latitude
Unknown
Longitude
Unknown
Altitude
Unknown
Speed
Unknown
Apparent Right ascension
Unknown
Apparent Declination
Unknown
Sunlit
N/A
Visualization observer readout
Local Sidereal Time
19:20:50
Azimuth
Unknown
Elevation
Unknown
Doppler factor
Unknown
Orbital elements
Apogee altitude
1,338.291 km
Perigee altitude
1,319.99 km
Semi-major axis
7,707.277 km
Eccentricity
0.00119
Inclination
82.5946°
RAAN
118.1393°
Arg. of periapsis
53.6667°
True anomaly
306.44361°
Mean anomaly
306.553°
Eccentric anomaly
306.49831°
Mean motion
3.20768 °/min
Orbital period
112.23 mins
BSTAR
0.0039974
Loading maneuver chart data...
Computing Atmospheric mass density...
Loading historical data...
Loading historical data...
Loading historical data...
Loading historical data...
Loading historical data...
Loading historical data...
Loading historical data...

Documentation

Showing up to 5 results
|